Tracking 30990 objects as of 8-Jul-2025
HD Live streaming from Space Station
objects crossing your sky now

CZ-4C R/B

Track CZ-4C R/B now!
10-day predictions


NORAD ID: 49496
Int'l Code: 2021-109B
Perigee: 569.5 km
Apogee: 734.3 km
Inclination: 98.3 °
Period: 97.6 minutes
Semi major axis: 7022 km
RCS: Unknown
Launch date: November 22, 2021
Source: People's Republic of China (PRC)
Launch site: Jiuquan Satellite Launch Center, China (JSC)

Note: This is a ROCKET BODY
Your satellite tracking list
Your tracking list is empty




NASA's NSSDC Master Catalog

Two Line Element Set (TLE):
1 49496U 21109B   25188.90822005  .00000565  00000-0  83129-4 0  9998
2 49496  98.2521 250.7559 0117323 170.8186 189.5206 14.75114022194778
Source of the keplerian elements: AFSPC